Regional Weather Roundup
Issued by NWS Cleveland, OH

Home | Current Version | Previous Version | Text Only | Print | Product List | Glossary On
Versions: 1 2 3 4 5 6 7 8 9 10 11 12 13 14 15 16 17 18 19 20 21 22 23 24 25 26 27 28 29 30 31 32 33 34 35 36 37 38 39 40 41 42 43 44 45 46 47 48 49 50
000
ASUS41 KCLE 251410
RWRCLE
OHIO REGIONAL WEATHER ROUNDUP
NATIONAL WEATHER SERVICE WILMINGTON, OH
900 AM EST SUN JAN 25 2015

NOTE: "FAIR" INDICATES FEW OR NO CLOUDS BELOW 12,000 FEET WITH NO
SIGNIFICANT WEATHER AND/OR OBSTRUCTIONS TO VISIBILITY.

OHZ001>008-015>018-024>027-034-035-043-044-251500-
   NORTHWEST OHIO

CITY           SKY/WX    TMP DP  RH WIND       PRES   REMARKS
DEFIANCE       CLOUDY    35  32  88 NE14G23   29.78R FOG     WCI  26
FINDLAY        CLOUDY    35  31  85 NE5       29.75R
TOLEDO EXPRESS LGT SNOW  27  25  93 NE16      29.81R FOG     WCI  14
TOLEDO EXEC    FLURRIES  27  21  78 NE17G26   29.83R WCI  14
LIMA           CLOUDY    35  31  85 CALM      29.73R FOG
$$

OHZ009>014-019>023-028>033-038-089-251500-
   NORTHEAST OHIO

CITY           SKY/WX    TMP DP  RH WIND       PRES   REMARKS
CLE-HOPKINS    CLOUDY    28  26  92 NE20      29.83R FOG     WCI  15
CLE-LAKEFRONT  LGT SNOW  28  25  88 NE22G29   29.82R FOG     WCI  14
CUY CO. ARPT   LGT SNOW  28  27  93 NE16      29.82R WCI  17
LORAIN-ELYRIA  LGT SNOW  28  26  92 NE15      29.80R FOG     WCI  16
ASHTABULA      LGT SNOW  26  23  88 N7        29.83R FOG     WCI  18
AKRON-CANTON   CLOUDY    34  30  85 CALM      29.75R FOG
WOOSTER        CLOUDY    34  30  85 CALM      29.76R FOG
MANSFIELD      CLOUDY    34  31  88 SW3       29.74R FOG
YOUNGSTOWN     FRZ DRZL  29  26  89 N13       29.77R FOG     WCI  19
$$

OHZ042-051>053-060>062-070>072-077>081-251500-
  SOUTHWEST OHIO

CITY           SKY/WX    TMP DP  RH WIND       PRES   REMARKS
CINC-COVINGTON CLOUDY    37  31  78 S10       29.72R
CINC-LUNKEN    CLOUDY    32  31  96 CALM      29.74F FOG
HAMILTON       CLOUDY    36  31  82 CALM      29.73S
DAYTON         LGT RAIN  34  31  88 SE5       29.73R FOG     WCI  30
WRIGHT-PAT AFB CLOUDY    34  30  88 SE2       29.73R
DAYTON GENERAL CLOUDY    36  31  82 SE5       29.71S
WILMINGTON     CLOUDY    34  29  82 S6        29.72S WCI  29
$$

OHZ036-037-039>041-045>050-054>059-063>069-073>076-082>088-251500-
  CENTRAL AND SOUTHEAST OHIO

CITY           SKY/WX    TMP DP  RH WIND       PRES   REMARKS
COLUMBUS       CLOUDY    34  30  85 S3        29.76R FOG
OSU AIRPORT    PTSUNNY   34  30  85 S6        29.75R FOG     WCI  29
BOLTON FIELD   CLOUDY    32  30  93 S3        29.76R FOG
RICKENBACK AFB PTSUNNY   33  30  90 CALM      29.76R FOG
NEWARK         CLOUDY    35  30  82 SE3       29.76R HAZE
MARION         CLOUDY    34  30  85 SE5       29.75R FOG     WCI  30
LANCASTER      MOSUNNY   35  31  85 SE5       29.77R FOG
ZANESVILLE     CLOUDY    32  29  88 S6        29.77R FOG     WCI  26
NEW PHILLY     CLOUDY    34  30  85 S5        29.78R FOG     WCI  30
$$



USA.gov is the U.S. government's official web portal to all federal, state and local government web resources and services.